Flag for United Arab Emirates Weather past 2 weeks in Ras al-Khaimah, Ras al-Khaimah, United Arab Emirates

Now
108 °F

Sunny.


Feels Like: 112 °F
Forecast: 92 / 108 °F
Wind: 15 mph from Northwest

Location: Ras Al Khaimah International Airport

Current Time: Jul 29, 2015 at 3:50:37 PM

Latest Report: Jul 29, 2015 at 3:00 PM


Visibility: 10 mi

Pressure: 29.42 "Hg

Humidity: 25%

Dew point: 64 °F

Historic Weather in Ras al-Khaimah — Graph

°F

Ras al-Khaimah temperature yesterday

Maximum temperature yesterday: 113 °F (at 12:00 PM)
Minimum temperature yesterday: 90 °F (at 5:00 AM)
Average temperature yesterday: 101 °F

Past Weeks' High & Low Weather Summary

 TemperatureHumidityPressure
High113 °F (Jul 25, 1:00 PM)84% (Jul 17, 11:00 PM)29.56 "Hg (Jul 17, 11:00 PM)
Low82 °F (Jul 15, 6:00 AM)9% (Jul 20, 6:00 PM)29.30 "Hg (Jul 17, 3:00 PM)
Average99 °F37%29.44 "Hg
* Reported Jul 14 2:00 PM — Jul 29 2:00 PM, Ras al-Khaimah, Weather by CustomWeather, © 2015

Note: Actual official high and low records may vary slightly from our data, if they occured in-between our weather recording intervals... More about our weather records

Advertising

Ras al-Khaimah weather history for previous 24 hours

 ConditionsComfort  
Time TempWeatherWind HumidityBarometerVisibility
2:00 PM
Wed, Jul 29
109 °FSunny.13 mph27%29.45 "Hg10 mi
1:00 PM109 °FSunny.15 mph23%29.45 "Hg10 mi
12:00 PM108 °FSunny.14 mph28%29.47 "Hg10 mi
11:00 AM109 °FSunny.15 mph22%29.47 "Hg10 mi
10:00 AM109 °FSunny.14 mph19%29.47 "Hg10 mi
9:00 AM106 °FSunny.13 mph22%29.47 "Hg10 mi
8:00 AM100 °FSunny.9 mph25%29.47 "Hg10 mi
7:00 AM90 °FSunny.7 mph43%29.47 "Hg10 mi
6:00 AM88 °FSunny.3 mph49%29.47 "Hg10 mi
5:00 AM90 °FClear.2 mph46%29.47 "Hg10 mi
4:00 AM91 °FClear.7 mph44%29.45 "Hg10 mi
3:00 AM91 °FClear.7 mph44%29.45 "Hg10 mi
2:00 AM91 °FClear.7 mph44%29.45 "Hg10 mi
1:00 AM91 °FClear.6 mph44%29.47 "Hg10 mi
12:00 AM91 °FClear.7 mph46%29.47 "Hg10 mi
11:00 PM
Tue, Jul 28
93 °FClear.3 mph44%29.47 "Hg10 mi
10:00 PM95 °FClear.3 mph41%29.47 "Hg10 mi
9:00 PM97 °FClear.2 mph39%29.45 "Hg10 mi
8:00 PM100 °FClear.6 mph35%29.47 "Hg10 mi
7:00 PM102 °FSunny.7 mph33%29.45 "Hg10 mi
6:00 PM104 °FSunny.9 mph31%29.42 "Hg10 mi
5:00 PM106 °FClear.12 mph28%29.42 "Hg5 mi
4:00 PM109 °FClear.16 mph25%29.42 "Hg4 mi
3:00 PM109 °FClear.21 mph30%29.42 "Hg5 mi
Weather by CustomWeather, © 2015

See weather overviewHow to use our weather pages